GW0143 Weather Reports


time (UTC)temp
F
wind
direction
speed
knots
gust
knots
rain 1hr
in
rain 24hr
in
rain mn
in
humidity
%
barometer
mb
20260504030539 50 22 0.9 1.7 0.00 0.00 0.00 37 1016.7
20260504025522 50 62 2.6 4.3 0.00 0.00 0.00 40 1016.6
20260504024519 50 285 1.7 2.6 0.00 0.00 0.00 39 1016.5
20260504023520 51 310 0.9 2.6 0.00 0.00 0.00 37 1016.4
20260504022520 52 283 0.9 2.6 0.00 0.00 0.00 35 1016.3
20260504021517 53 259 3.5 5.2 0.00 0.00 0.00 33 1016.3
20260504020517 53 268 4.3 7.8 0.00 0.00 0.00 32 1016.2
20260504015523 54 243 3.5 7.0 0.00 0.00 0.00 31 1016.1
20260504014521 55 234 6.1 8.7 0.00 0.00 0.00 28 1016.1
20260504013518 55 269 7.0 11.3 0.00 0.00 0.00 28 1016.1
20260504012518 56 322 5.2 7.8 0.00 0.00 0.00 28 1016.0
20260504011518 56 307 7.0 9.6 0.00 0.00 0.00 28 1015.8
20260504010518 57 301 5.2 9.6 0.00 0.00 0.00 26 1015.8
20260504005519 57 323 3.5 7.8 0.00 0.00 0.00 23 1015.7
20260504004519 58 316 3.5 6.1 0.00 0.00 0.00 23 1015.7
20260504003519 58 299 6.1 7.8 0.00 0.00 0.00 23 1015.7
20260504002520 58 300 3.5 5.2 0.00 0.00 0.00 23 1015.7
20260504001519 58 306 4.3 7.8 0.00 0.00 0.00 23 1015.8
20260504000600 58 300 7.0 10.4 0.00 0.00 0.00 23 1015.8
20260503235520 59 289 6.1 9.6 0.00 0.00 0.00 22 1015.8
20260503234523 59 309 1.7 3.5 0.00 0.00 0.00 21 1015.8
20260503233520 60 300 5.2 7.8 0.00 0.00 0.00 21 1015.9
20260503232541 60 288 7.8 13.0 0.00 0.00 0.00 21 1015.8
20260503231520 59 281 3.5 7.0 0.00 0.00 0.00 21 1015.9
20260503230520 61 286 6.1 13.0 0.00 0.00 0.00 20 1015.9
20260503225521 59 9 3.5 5.2 0.00 0.00 0.00 20 1016.1
20260503224521 60 10 3.5 7.0 0.00 0.00 0.00 20 1016.1
20260503223520 59 22 3.5 7.0 0.00 0.00 0.00 20 1016.2
20260503222521 59 332 2.6 5.2 0.00 0.00 0.00 21 1016.3
20260503221521 59 2 3.5 7.8 0.00 0.00 0.00 20 1016.4
20260503220542 59 49 4.3 7.8 0.00 0.00 0.00 19 1016.6
20260503215522 59 1 3.5 7.0 0.00 0.00 0.00 19 1016.7
20260503214522 60 324 3.5 8.7 0.00 0.00 0.00 20 1016.8
20260503213539 60 311 4.3 10.4 0.00 0.00 0.00 20 1017.0
20260503212522 60 18 5.2 8.7 0.00 0.00 0.00 18 1017.1
20260503211519 61 295 4.3 9.6 0.00 0.00 0.00 17 1017.3
20260503210516 62 20 6.1 10.4 0.00 0.00 0.00 17 1017.5
20260503205522 61 344 3.5 7.0 0.00 0.00 0.00 18 1017.7
20260503204523 60 11 1.7 6.1 0.00 0.00 0.00 18 1017.9
20260503203519 61 357 7.0 12.2 0.00 0.00 0.00 18 1018.1
20260503202523 60 0 5.2 8.7 0.00 0.00 0.00 19 1018.3
20260503201523 59 342 3.5 7.8 0.00 0.00 0.00 20 1018.5
20260503200517 59 9 6.1 9.6 0.00 0.00 0.00 21 1018.6
20260503195517 59 314 5.2 11.3 0.00 0.00 0.00 20 1018.8
20260503194517 60 320 4.3 7.8 0.00 0.00 0.00 18 1018.8
20260503193518 59 355 4.3 7.8 0.00 0.00 0.00 19 1018.9
20260503192524 59 316 4.3 8.7 0.00 0.00 0.00 18 1019.1
20260503191539 59 298 3.5 7.8 0.00 0.00 0.00 18 1019.2
20260503190518 58 205 5.2 7.8 0.00 0.00 0.00 20 1019.4
20260503185518 58 272 7.8 13.9 0.00 0.00 0.00 20 1019.5
20260503184518 57 289 6.1 12.2 0.00 0.00 0.00 21 1019.8
20260503183520 57 297 4.3 7.8 0.00 0.00 0.00 22 1020.0
20260503182519 57 278 5.2 11.3 0.00 0.00 0.00 23 1020.1
20260503181539 56 41 2.6 6.1 0.00 0.00 0.00 23 1020.4
20260503180519 56 32 4.3 7.8 0.00 0.00 0.00 23 1020.5
20260503175519 56 341 3.5 7.0 0.00 0.00 0.00 24 1020.6
20260503174528 55 327 1.7 4.3 0.00 0.00 0.00 24 1020.7
20260503173520 55 298 3.5 7.0 0.00 0.00 0.00 24 1020.8
20260503172528 54 335 1.7 3.5 0.00 0.00 0.00 24 1021.0
20260503171529 54 10 1.7 3.5 0.00 0.00 0.00 25 1021.0
20260503170520 54 52 2.6 6.1 0.00 0.00 0.00 25 1021.0
20260503150522 51 148 3.5 6.1 0.00 0.00 0.00 34 1022.0
20260503130517 40 86 3.5 5.2 0.00 0.00 0.00 48 1021.9
20260503110519 37 138 5.2 7.8 0.00 0.00 0.00 50 1021.5
20260503081518 38 149 7.0 8.7 0.00 0.00 0.00 49 1021.7
20260503080518 38 147 6.1 7.8 0.00 0.00 0.00 49 1021.7
20260503072519 38 147 5.2 7.0 0.00 0.00 0.00 49 1022.0
20260503071519 38 149 5.2 7.0 0.00 0.00 0.00 53 1022.1
20260503070539 38 161 5.2 7.0 0.00 0.00 0.00 50 1022.1
20260503054521 38 157 7.0 8.7 0.00 0.00 0.00 58 1022.1
20260503053521 38 153 6.1 7.8 0.00 0.00 0.00 60 1022.1
20260503052521 38 156 6.1 7.8 0.00 0.00 0.00 59 1022.2
20260503051521 38 157 6.1 7.0 0.00 0.00 0.00 58 1022.1
20260503050521 39 158 5.2 6.1 0.00 0.00 0.00 57 1022.2
20260503045522 39 164 5.2 7.0 0.00 0.00 0.00 56 1022.2
20260503044522 38 164 5.2 7.8 0.00 0.00 0.00 57 1022.3
20260503043522 39 183 5.2 7.8 0.00 0.00 0.00 56 1022.3
20260503042522 40 167 6.1 7.8 0.00 0.00 0.00 54 1022.3
20260503041539 40 186 6.1 9.6 0.00 0.00 0.00 52 1022.3
20260503040522 39 191 6.1 7.8 0.00 0.00 0.00 54 1022.4
20260503035517 40 185 3.5 5.2 0.00 0.00 0.00 56 1022.4
20260503034517 41 152 5.2 7.0 0.00 0.00 0.00 51 1022.2
20260503033517 40 169 6.1 7.8 0.00 0.00 0.00 50 1022.4
20260503032604 40 153 6.1 7.0 0.00 0.00 0.00 50 1022.3
20260503031521 39 156 6.1 8.7 0.00 0.00 0.00 52 1022.4